Regional Weather Roundup
Issued by NWS Northern Indiana

Home | Current Version | Previous Version | Text Only | Print | Product List | Glossary Off
Versions: 1 2 3 4 5 6 7 8 9 10 11 12 13 14 15 16 17 18 19 20 21 22 23 24 25 26 27 28 29 30 31 32 33 34 35 36 37 38 39 40 41 42 43 44 45 46 47 48 49 50

000
ASUS43 KIWX 242200
RWRIWX

KIWX WEATHER ROUNDUP
NATIONAL WEATHER SERVICE NORTHERN INDIANA
600 PM EDT WED MAY 24 2017

NOTE: "FAIR" INDICATES FEW OR NO CLOUDS BELOW 12,000 FEET WITH NO
SIGNIFICANT WEATHER AND/OR OBSTRUCTIONS TO VISIBILITY.

* THESE STATIONS ARE NOT UNDER NWS QUALITY CONTROL. THEY ALSO MAY NOT
  REPORT WEATHER SUCH AS PRECIPITATION OR FOG.

INZ001>027-242300-
NORTHERN INDIANA

CITY           SKY/WX    TMP DP  RH WIND       PRES   REMARKS
GARY*          LGT RAIN  54  50  87 N14       29.57R
MICHIGAN CITY* LGT RAIN  52  52 100 NW8       29.53R
SOUTH BEND     TSTM      59  53  80 E13G20    29.52R
ELKHART*       LGT RAIN  59  55  88 E6        29.51R
GOSHEN         LGT RAIN  61  56  83 NE10      29.49S
MONTICELLO*    LGT RAIN  59  56  90 NW10      29.47F
ANGOLA*        CLOUDY    59  46  63 NE5       29.50R
FORT WAYNE     TSTM      59  56  89 N15G22    29.46S FOG
PERU/GRISSOM   RAIN      61  61 100 NW10      29.46S

$$
INZ028>050-242300-
CENTRAL INDIANA

CITY           SKY/WX    TMP DP  RH WIND       PRES   REMARKS
LAFAYETTE      LGT RAIN  60  57  89 N9        29.46F
KOKOMO*        LGT RAIN  60  58  92 N9        29.46F
MUNCIE*        LGT RAIN  61  58  90 N10       29.44F FOG
INDIANAPOLIS   LGT RAIN  60  56  86 N8        29.43F

$$
MIZ043>046-050>051-056>058-064>065-071>073-077>080-242300-
SOUTHWEST LOWER MICHIGAN

CITY           SKY/WX    TMP DP  RH WIND       PRES   REMARKS
BATTLE CREEK   LGT RAIN  61  59  93 NE7       29.53S
BENTON HARBOR  CLOUDY    59  54  83 N3        29.50R
COLDWATER*     LGT RAIN  60  58  94 E6        29.52S
HILLSDALE*     LGT RAIN  59  55  88 NE8       29.51R
HOLLAND        CLOUDY    69  55  60 E10       29.53R
GRAND RAPIDS   LGT RAIN  64  56  75 E16       29.54R
KALAMAZOO      RAIN      61  57  87 NE3       29.54S FOG
STURGIS*       LGT RAIN  60  59  96 MISG      29.50F
THREE RIVERS*  LGT RAIN  60  58  92 E6        29.52S

$$
OHZ001>008-015>018-024>025-242300-
NORTHWEST OHIO

CITY           SKY/WX    TMP DP  RH WIND       PRES   REMARKS
DEFIANCE       CLOUDY    60  57  89 NE15G25   29.47R
FINDLAY        CLOUDY    64  59  83 NE9       29.44F
TOLEDO EXPRESS LGT RAIN  59  59 100 E13       29.49S FOG
TOLEDO METCALF CLOUDY    61  59  93 E14G22    29.50F FOG
LIMA           CLOUDY    67  59  75 E16       29.43S

$$
AND FOR LAKE MICHIGAN COASTAL AND OPEN LAKE BUOY OBSERVATIONS

STATION/POSITION TEMP    WIND        PRES    VSBY  WAVE
                 AIR SEA DIR/SP/G                  HT/PER
                 (F)     (DEG/KT/KT) (MB)    (MI)  (FT/S)
CALUMET HARBOR    52     330/ 14/ 18 1000.2R
MICHIGAN CITY     53     280/  7/  8   N/A
BURNS HARBOR      51     300/  7/  8 1001.0R
SOUTH LAKE BUOY   47 45   10/ 17/ 21 1000.2          4/ 5
4 MI NW BRIDGMAN  54 56   50/ 12/ 17  999.4R         4/ 5
MICHIGAN CITY     53 54  330/ 12/ 14   N/A           4/ 5

$$
&&




USA.gov is the U.S. government's official web portal to all federal, state and local government web resources and services.